Regional Weather Roundup
Issued by NWS Kansas City/Pleasant Hill, MO

Home | Current Version | Previous Version | Text Only | Print | Product List | Glossary On
Versions: 1 2 3 4 5 6 7 8 9 10 11 12 13 14 15 16 17 18 19 20 21 22 23 24 25 26 27 28 29 30 31 32 33 34 35 36 37 38 39 40 41 42 43 44 45 46 47 48 49 50
000
ASUS43 KEAX 280204
RWREAX

WEATHER ROUNDUP FOR EASTERN KANSAS AND NORTHWEST MISSOURI
NATIONAL WEATHER SERVICE KANSAS CITY/PLEASANT HILL MO
900 PM CDT MON APR 27 2015

KSZ040-057-103>105-MOZ028-029-037-043-280300-
...KANSAS CITY METROPOLITAN AREA...

CITY           SKY/WX    TMP DP  RH WIND       PRES   REMARKS
K.C. INTL      MOCLDY    58  35  42 E5        30.09R
K.C. DOWNTOWN  PTCLDY    59  37  44 N5        30.07R
LEES SUMMIT    MOCLDY    58  36  43 NE5       30.08R
OLATHE - IXD   PTCLDY    51  38  60 N5        30.08R
OLATHE - OJC   PTCLDY    58  35  42 NE6       30.07R
LAWRENCE       PTCLDY    50  40  68 N5        30.08R

$$

MOZ001>008-011>017-020>025-030>033-038>040-044>046-053-054-280300-
...NORTHERN AND CENTRAL MISSOURI...

CITY           SKY/WX    TMP DP  RH WIND       PRES   REMARKS
ST. JOSEPH     MOCLDY    55  38  52 N7        30.10R
MOSBY          PTCLDY    61  34  36 N3        30.08R
WARRENSBURG    PTCLDY    55  36  47 NE6       30.08R
WHITEMAN AFB   MOCLDY    55  38  53 NE5       30.06R
CLINTON        MOCLDY    57  39  51 NE3       30.07R
SEDALIA        PTCLDY    58  36  43 NE6       30.08R
WARSAW         NOT AVBL
MARSHALL       PTCLDY    61  39  44 NE6       30.09R
CHILLICOTHE      N/A     56  40  55 NE3       30.10R
MOBERLY        PTCLDY    55  34  44 E3        30.09R
KIRKSVILLE     CLEAR     54  39  57 NE6       30.10R

$$

MOZ041-047>049-056>058-063>065-088>090-097-280300-
...EASTERN AND SOUTHERN MISSOURI...

CITY           SKY/WX    TMP DP  RH WIND       PRES   REMARKS
ST. LOUIS INTL PTCLDY    59  36  42 NE7       30.06R
SPIRIT OF STL  PTCLDY    54  38  54 CALM      30.05R
COLUMBIA       PTCLDY    55  38  52 NE8       30.07R
JEFFERSON CITY PTCLDY    60  35  39 N6        30.06R
MEXICO         PTCLDY    57  43  58 NE6       30.07R
HANNIBAL       CLEAR     57  32  38 NE3       30.09R
ROLLA          MOCLDY    54  35  48 NE5       30.04
LEBANON        MOCLDY    55  36  47 CALM      30.05R
OSAGE BEACH    MOCLDY    57  34  41 NE5       30.06R
SPRINGFIELD    CLOUDY    56  36  47 NE8       30.02R
BRANSON        CLOUDY    57  32  38 E6        30.01R
NEVADA         MOCLDY    54  39  58 N5        30.06R
JOPLIN         CLOUDY    56  40  55 NE7       30.03R
WEST PLAINS    MOCLDY    56  32  40 E6        30.03R

$$

IAZ060-094-KSZ022-034>040-054-083-096-NEZ052-066-093-280300-
...KANSAS...SOUTHEAST NEBRASKA AND IOWA...

CITY           SKY/WX    TMP DP  RH WIND       PRES   REMARKS
TOPEKA         PTCLDY    56  37  49 CALM      30.09R
MANHATTAN      CLEAR     55  37  50 N5        30.10R
EMPORIA        MOCLDY    55  35  47 NE6       30.09R
CHANUTE        CLOUDY    57  38  48 NE5       30.06R
WICHITA        CLOUDY    59  35  40 NE9       30.07R
OMAHA          MOCLDY    62  33  33 NE8       30.13R
LINCOLN        MOCLDY    54  33  45 NE5       30.15R
FALLS CITY     MOCLDY    59  33  37 CALM      30.11R
LAMONI         CLEAR     55  36  48 NE6       30.11R
DES MOINES     PTCLDY    62  30  29 E3        30.12R

$$



USA.gov is the U.S. government's official web portal to all federal, state and local government web resources and services.